Weather History for Kansas City International, MO

Change the Weather History Date:

Wednesday, April 3, 2013

  Actual Average Record
Temperature  
Mean Temperature 42 °F 51 °F  
Max Temperature 51 °F 62 °F 91 °F (2011)
Min Temperature 32 °F 40 °F 12 °F (1975)
Degree Days  
Heating Degree Days 23 15  
Month to date heating degree days 77 45  
Since 1 July heating degree days 4645 4736  
Cooling Degree Days 0 0  
Month to date cooling degree days 0 0  
Year to date cooling degree days 0 3  
Moisture  
Dew Point 21 °F    
Average Humidity 48    
Maximum Humidity 64    
Minimum Humidity 32    
Precipitation  
Precipitation 0.00 in 0.10 in 1.78 in (1947)
Month to date precipitation T 0.29  
Year to date precipitation 4.84 5.19  
Snow  
Snow 0.00 in 0.00 in 4.70 in (1899)
Month to date snowfall 0.0 0.1  
Since 1 July snowfall 31.3 18.3  
Snow Depth 0.00 in    
Sea Level Pressure  
Sea Level Pressure 30.31 in    
Wind  
Wind Speed 8 mph (East)    
Max Wind Speed 15 mph    
Max Gust Speed 20 mph    
Visibility 10 miles    
Events      
T = Trace of Precipitation, MM = Missing Value Source: NWS Daily Summary

Daily Weather History Graph

Daily Weather History Graph

Search for Another Location

Airport:

Trip Planner

Search our weather history database for the weather conditions in past years. The results will help you decide how hot, cold, wet, or windy it might be!

Date:

Astronomy

Apr. 03, 2013 Rise Set
Actual Time 6:59 AM CDT 7:45 PM CDT
Civil Twilight 6:32 AM CDT 8:12 PM CDT
Nautical Twilight 6:00 AM CDT 8:44 PM CDT
Astronomical Twilight 5:27 AM CDT 9:17 PM CDT
Moon 2:39 AM CDT (4/3) 1:00 PM CDT (4/3)
Length of Visible Light 13h 39m
Length of Day
12h 45m
Last Quarter, 44% of the Moon is Illuminated
Apr 3
Last Quarter
Apr 10
New
Apr 18
First Quarter
Apr 25
Full
May 2
Last Quarter

Hourly Weather History & Observations

Time (CDT) Temp. Windchill Dew Point Humidity Pressure Visibility Wind Dir Wind Speed Gust Speed Precip Events Conditions
12:53 AM 37.9 °F 32.7 °F 19.9 °F 48% 30.30 in 10.0 mi SE 6.9 mph - N/A   Clear
1:53 AM 37.0 °F 32.4 °F 21.0 °F 52% 30.31 in 10.0 mi ESE 5.8 mph - N/A   Clear
2:53 AM 33.1 °F 25.5 °F 23.0 °F 66% 30.31 in 10.0 mi ENE 9.2 mph - N/A   Clear
3:53 AM 34.0 °F 26.6 °F 21.0 °F 59% 30.31 in 10.0 mi East 9.2 mph - N/A   Clear
4:53 AM 34.0 °F 27.2 °F 21.0 °F 59% 30.33 in 10.0 mi East 8.1 mph - N/A   Clear
5:53 AM 33.1 °F 26.1 °F 21.0 °F 61% 30.35 in 10.0 mi East 8.1 mph - N/A   Clear
6:53 AM 32.0 °F 24.8 °F 21.0 °F 64% 30.35 in 10.0 mi East 8.1 mph - N/A   Partly Cloudy
7:53 AM 33.1 °F 24.9 °F 21.0 °F 61% 30.38 in 10.0 mi East 10.4 mph - N/A   Overcast
8:53 AM 37.0 °F 29.3 °F 21.0 °F 52% 30.37 in 10.0 mi ESE 11.5 mph - N/A   Overcast
9:53 AM 42.1 °F 34.9 °F 19.9 °F 41% 30.38 in 10.0 mi ESE 13.8 mph - N/A   Mostly Cloudy
10:53 AM 44.1 °F 38.1 °F 19.9 °F 38% 30.37 in 10.0 mi ESE 11.5 mph - N/A   Mostly Cloudy
11:53 AM 46.9 °F - 21.0 °F 36% 30.37 in 10.0 mi East 10.4 mph - N/A   Overcast
12:53 PM 48.0 °F - 21.0 °F 34% 30.35 in 10.0 mi East 11.5 mph 19.6 mph N/A   Overcast
1:53 PM 48.9 °F - 21.9 °F 35% 30.34 in 10.0 mi East 5.8 mph - N/A   Overcast
2:53 PM 48.9 °F - 21.9 °F 35% 30.32 in 10.0 mi Calm Calm - N/A   Overcast
3:53 PM 51.1 °F - 23.0 °F 33% 30.29 in 10.0 mi NE 10.4 mph - N/A   Overcast
4:53 PM 50.0 °F - 24.1 °F 36% 30.27 in 10.0 mi NE 11.5 mph - N/A   Mostly Cloudy
5:53 PM 48.9 °F - 23.0 °F 36% 30.27 in 10.0 mi ENE 13.8 mph - N/A   Overcast
6:53 PM 48.0 °F - 24.1 °F 39% 30.25 in 10.0 mi ENE 9.2 mph - N/A   Overcast
7:53 PM 46.9 °F - 23.0 °F 39% 30.25 in 10.0 mi ENE 8.1 mph - N/A   Mostly Cloudy
8:53 PM 46.9 °F - 19.0 °F 33% 30.26 in 10.0 mi ESE 9.2 mph - N/A   Clear
9:53 PM 44.1 °F 40.8 °F 17.1 °F 34% 30.27 in 10.0 mi ESE 5.8 mph - N/A   Clear
10:53 PM 44.1 °F 41.5 °F 17.1 °F 34% 30.27 in 10.0 mi East 4.6 mph - N/A   Clear
11:53 PM 42.1 °F - 18.0 °F 38% 30.26 in 10.0 mi Calm Calm - N/A   Scattered Clouds